Jacksonville, IL

11:10 PM CST on February 13, 2016 (GMT -0600)
Jacksonville Municipal

Weather History for KIJX - September, 2012

Change the Weather History Date:

Tuesday, September 25, 2012

  Actual Average (KSPI) Record (KSPI)
Temperature  
Mean Temperature 69 °F 63 °F  
Max Temperature 79 °F 75 °F 94 °F (1891)
Min Temperature 59 °F 50 °F 36 °F (2001)
Degree Days  
Heating Degree Days 0 5  
Month to date heating degree days 49  
Since 1 July heating degree days 54  
Cooling Degree Days 4 2  
Month to date cooling degree days 118  
Year to date cooling degree days 1088  
Growing Degree Days 19 (Base 50)    
Moisture  
Dew Point 61 °F    
Average Humidity 82    
Maximum Humidity 97    
Minimum Humidity 57    
Precipitation  
Precipitation 1.10 in 0.10 in 1.95 in (1886)
Month to date precipitation 2.43  
Year to date precipitation 28.08  
Snow  
Snow 0.00 in 0.00 in T in (1942)
Month to date snowfall 0.0  
Since 1 July snowfall 0.0  
Since 1 September snowfall 0.0  
Snow Depth -    
Sea Level Pressure  
Sea Level Pressure 29.88 in    
Wind  
Wind Speed 7 mph (South)    
Max Wind Speed 12 mph    
Max Gust Speed 17 mph    
Visibility 9 miles    
Events Rain , Thunderstorm    
T = Trace of Precipitation, MM = Missing Value Source: NWS Daily Summary

Daily Weather History Graph

Daily Weather History Graph

Search for Another Location

Airport or City:

Trip Planner

Search our weather history database for the weather conditions in past years. The results will help you decide how hot, cold, wet, or windy it might be!

Date:

Astronomy

Sep. 25, 2012 Rise Set
Actual Time 6:51 AM CDT 6:52 PM CDT
Civil Twilight 6:24 AM CDT 7:19 PM CDT
Nautical Twilight 5:53 AM CDT 7:50 PM CDT
Astronomical Twilight 5:21 AM CDT 8:22 PM CDT
Moon 4:16 PM CDT (9/25) 2:14 AM CDT (9/25)
Length of Visible Light 12h 54m
Length of Day
12h 00m
Waxing Gibbous, 80% of the Moon is Illuminated
Sep 25
Waxing Gibbous
Sep 29
Full
Oct 8
Last Quarter
Oct 15
New
Oct 21
First Quarter

Hourly Weather History & Observations

Time (CDT) Temp. Dew Point Humidity Pressure Visibility Wind Dir Wind Speed Gust Speed Precip Events Conditions
12:15 AM 63.1 °F 47.8 °F 57% 29.94 in 10.0 mi South 8.1 mph - N/A   Clear
12:35 AM 63.0 °F 48.2 °F 59% 29.93 in 10.0 mi South 6.9 mph - N/A   Clear
12:55 AM 63.0 °F 48.2 °F 59% 29.93 in 10.0 mi South 6.9 mph - N/A   Clear
1:15 AM 63.5 °F 48.4 °F 58% 29.92 in 10.0 mi South 9.2 mph - N/A Thunderstorm Clear
1:35 AM 63.5 °F 48.4 °F 58% 29.92 in 10.0 mi South 9.2 mph - N/A   Clear
1:55 AM 63.0 °F 48.6 °F 59% 29.91 in 10.0 mi South 8.1 mph - N/A Thunderstorm Clear
2:15 AM 62.6 °F 48.6 °F 60% 29.89 in 10.0 mi SSE 8.1 mph - N/A Thunderstorm Clear
2:35 AM 62.8 °F 48.6 °F 60% 29.90 in 10.0 mi South 9.2 mph - N/A Thunderstorm Scattered Clouds
2:55 AM 62.8 °F 48.9 °F 61% 29.88 in 10.0 mi South 10.4 mph - N/A Thunderstorm Thunderstorm
3:15 AM 60.4 °F 52.3 °F 75% 29.85 in 5.0 mi SSE 9.2 mph - 0.04 in Rain , Thunderstorm Heavy Thunderstorms and Rain
3:35 AM 59.0 °F 55.0 °F 87% 29.88 in 3.0 mi SSW 4.6 mph - 0.20 in Rain , Thunderstorm Heavy Thunderstorms and Rain
3:55 AM 59.7 °F 57.6 °F 93% 29.85 in 4.0 mi SSE 5.8 mph - 0.27 in Rain , Thunderstorm Thunderstorms and Rain
4:15 AM 60.1 °F 58.6 °F 95% 29.88 in 4.0 mi SSW 8.1 mph - 0.04 in Rain , Thunderstorm Heavy Thunderstorms and Rain
4:35 AM 60.8 °F 59.4 °F 95% 29.89 in 4.0 mi Calm Calm - 0.10 in Rain , Thunderstorm Heavy Thunderstorms and Rain
5:15 AM 59.9 °F 59.0 °F 97% 29.92 in 2.5 mi SSW 6.9 mph - 0.06 in Rain , Thunderstorm Heavy Thunderstorms and Rain
5:35 AM 59.5 °F 58.5 °F 96% 29.91 in 3.0 mi South 10.4 mph - 0.14 in Rain , Thunderstorm Heavy Thunderstorms and Rain
5:55 AM 59.5 °F 58.5 °F 96% 29.91 in 7.0 mi South 8.1 mph - 0.21 in Rain , Thunderstorm Thunderstorms and Rain
6:15 AM 60.3 °F 59.2 °F 96% 29.93 in 7.0 mi SSW 8.1 mph - 0.05 in Rain , Thunderstorm Rain
6:35 AM 60.6 °F 59.0 °F 94% 29.92 in 7.0 mi South 10.4 mph - 0.11 in Rain Light Rain
6:55 AM 60.8 °F 59.4 °F 95% 29.92 in 10.0 mi South 8.1 mph - 0.15 in Rain , Thunderstorm Light Thunderstorms and Rain
7:15 AM 60.6 °F 58.5 °F 93% 29.92 in 10.0 mi South 9.2 mph - 0.04 in Rain , Thunderstorm Light Thunderstorms and Rain
7:35 AM 60.3 °F 58.1 °F 93% 29.93 in 10.0 mi South 8.1 mph - 0.08 in   Light Drizzle
7:55 AM 60.6 °F 58.1 °F 91% 29.90 in 10.0 mi SSE 5.8 mph - 0.12 in Rain Light Rain
8:15 AM 60.4 °F 58.3 °F 93% 29.90 in 5.0 mi SSE 8.1 mph - 0.03 in Rain Rain
8:35 AM 60.3 °F 58.3 °F 93% 29.90 in 7.0 mi South 11.5 mph - 0.05 in Rain , Thunderstorm Rain
8:55 AM 61.0 °F 58.3 °F 91% 29.87 in 10.0 mi SE 6.9 mph - 0.07 in Rain Light Rain
9:15 AM 61.0 °F 58.6 °F 92% 29.87 in 10.0 mi SSE 11.5 mph 17.3 mph 0.01 in   Light Drizzle
9:35 AM 61.7 °F 59.0 °F 91% 29.88 in 10.0 mi South 10.4 mph - 0.02 in Rain , Thunderstorm Light Thunderstorms and Rain
9:55 AM 62.1 °F 59.2 °F 90% 29.88 in 10.0 mi South 6.9 mph - 0.03 in   Clear
10:15 AM 62.2 °F 59.5 °F 91% 29.88 in 10.0 mi SSE 6.9 mph - N/A Rain Light Rain
10:35 AM 62.8 °F 59.9 °F 90% 29.90 in 10.0 mi Calm Calm - 0.01 in Rain Light Rain
10:55 AM 63.5 °F 60.3 °F 89% 29.90 in 10.0 mi SSE 5.8 mph - 0.01 in Thunderstorm Clear
11:15 AM 64.0 °F 61.2 °F 90% 29.88 in 10.0 mi SE 4.6 mph - N/A   Clear
11:35 AM 64.4 °F 62.6 °F 94% 29.89 in 10.0 mi Calm Calm - N/A   Light Drizzle
11:55 AM 65.8 °F 62.8 °F 90% 29.88 in 10.0 mi SSE 3.5 mph - 0.01 in Thunderstorm Clear
12:15 PM 67.5 °F 63.5 °F 87% 29.88 in 10.0 mi South 4.6 mph - N/A   Clear
12:35 PM 68.2 °F 64.4 °F 88% 29.88 in 10.0 mi South 3.5 mph - 0.01 in Thunderstorm Clear
12:55 PM 69.6 °F 65.1 °F 86% 29.87 in 10.0 mi South 5.8 mph - 0.01 in   Clear
1:15 PM 71.1 °F 65.3 °F 82% 29.87 in 10.0 mi SSW 6.9 mph - N/A   Clear
1:55 PM 71.6 °F 66.2 °F 83% 29.86 in 10.0 mi SSW 4.6 mph - N/A   Clear
2:15 PM 72.0 °F 66.0 °F 81% 29.85 in 10.0 mi South 4.6 mph - N/A Rain Light Rain
2:35 PM 72.9 °F 66.2 °F 80% 29.84 in 10.0 mi South 5.8 mph - 0.01 in   Clear
2:55 PM 76.3 °F 66.4 °F 71% 29.84 in 10.0 mi SSW 8.1 mph - 0.01 in   Clear
3:15 PM 79.2 °F 66.4 °F 65% 29.84 in 10.0 mi SSW 9.2 mph - N/A   Clear
3:35 PM 77.7 °F 66.2 °F 68% 29.84 in 10.0 mi SW 8.1 mph - 0.01 in   Clear
3:55 PM 79.5 °F 66.6 °F 64% 29.84 in 10.0 mi South 8.1 mph - 0.02 in   Clear
4:15 PM 78.1 °F 65.3 °F 65% 29.85 in 10.0 mi SSW 9.2 mph - N/A   Clear
4:35 PM 78.1 °F 65.8 °F 66% 29.85 in 10.0 mi SSE 6.9 mph - 0.01 in   Clear
4:55 PM 77.0 °F 66.0 °F 69% 29.85 in 10.0 mi SSE 5.8 mph - 0.01 in   Clear
5:15 PM 75.9 °F 66.2 °F 72% 29.84 in 10.0 mi SSE 3.5 mph - N/A   Scattered Clouds
5:35 PM 74.7 °F 66.7 °F 76% 29.83 in 10.0 mi SSE 3.5 mph - N/A   Clear
5:55 PM 74.7 °F 66.6 °F 76% 29.84 in 10.0 mi SSE 3.5 mph - 0.01 in   Clear
6:15 PM 74.3 °F 66.4 °F 76% 29.84 in 10.0 mi Calm Calm - 0.01 in   Clear
6:35 PM 73.8 °F 66.2 °F 77% 29.84 in 10.0 mi Calm Calm - 0.01 in   Clear
6:55 PM 73.0 °F 66.2 °F 79% 29.84 in 10.0 mi SE 5.8 mph - 0.01 in   Clear
7:15 PM 72.9 °F 66.4 °F 80% 29.84 in 10.0 mi SSE 3.5 mph - N/A Thunderstorm Clear
7:35 PM 72.9 °F 66.4 °F 80% 29.82 in 10.0 mi SE 4.6 mph - N/A   Clear
7:55 PM 71.2 °F 65.8 °F 83% 29.83 in 10.0 mi Calm Calm - 0.01 in   Clear
8:15 PM 70.7 °F 66.4 °F 86% 29.84 in 10.0 mi ESE 3.5 mph - N/A   Clear
8:35 PM 68.4 °F 65.8 °F 92% 29.85 in 10.0 mi Calm Calm - 0.01 in   Clear
8:55 PM 67.5 °F 65.3 °F 93% 29.87 in 10.0 mi Calm Calm - 0.01 in   Clear
9:15 PM 66.9 °F 64.9 °F 93% 29.87 in 7.0 mi Calm Calm - 0.01 in   Clear
9:35 PM 68.0 °F 66.2 °F 94% 29.85 in 7.0 mi Calm Calm - 0.01 in   Clear
9:55 PM 68.5 °F 66.4 °F 93% 29.85 in 10.0 mi Calm Calm - 0.01 in   Clear
10:15 PM 69.4 °F 66.7 °F 91% 29.87 in 10.0 mi South 4.6 mph - 0.01 in   Clear
10:35 PM 69.8 °F 66.7 °F 90% 29.88 in 10.0 mi South 4.6 mph - 0.01 in   Scattered Clouds
10:55 PM 69.8 °F 67.1 °F 91% 29.88 in 10.0 mi South 4.6 mph - 0.02 in   Scattered Clouds
11:15 PM 69.8 °F 68.0 °F 94% 29.91 in 10.0 mi South 6.9 mph - N/A   Clear
11:35 PM 70.0 °F 67.3 °F 91% 29.91 in 10.0 mi SSW 5.8 mph - N/A   Mostly Cloudy
11:55 PM 69.8 °F 66.7 °F 90% 29.90 in 10.0 mi SSW 8.1 mph - 0.01 in   Scattered Clouds